SL-8 DEB, 1591

Orbit data source: Space-Track

SL-8 DEB, 1591 is space debris in LEO originally from a launch on Sat, 18 Sep 1965 UTC launched from the Tyuratam Missile And Space Complex (TTMTR). Debris objects in space refer to the collection of defunct objects orbiting the Earth. Examples of debris include non-operational satellites, rocket bodies, and fragments generated from explosions, collisions, or faulty payload assembly.

Loading next visibility...
Identifier
1591, 1965-073H
Orbit
LEO
Country
Flag of CISCIS
Related business
Manufacturer
Unknown
Mission
Spacecraft
Bus & Motor
Unknown
Mass
Unknown
Launch date (UTC)
1965-09-18 (61 years ago)
Launch vehicle
Unknown
Launch site
Tyuratam Missile And Space Complex (TTMTR)
Object type
Payload
Rocket body
Debris
Shape & HBR
Unknown shape, 0.1 m
Radar Cross Section
Medium (>0.1 m² and <1 m²)

Expand to show TLE details & history
Last TLE update: 23 hours ago

TLE from 23 hours ago
0 SL-8 DEB
1 01591U 65073H   26174.32073139  .00000104  00000-0  13626-2 0  9990
2 01591  56.0555 132.4769 0156265 336.3023 175.7778 12.43052363749484
Epoch: 2026-06-23T07:41Z
TLE epoch observation values (Epoch: 2026-06-23T07:41:51.192Z)
Latitude
22.79893°
Longitude
-90.83428°
Altitude
1,617.319 km
Speed
7.009 km/s
True Right ascension
19h 44m 29s
True Declination
22° 41' 22"
Sunlit
Object was in full shadow at epoch
Visualization orbit readout
Latitude
Unknown
Longitude
Unknown
Altitude
Unknown
Speed
Unknown
Apparent Right ascension
Unknown
Apparent Declination
Unknown
Sunlit
N/A
Visualization observer readout
Local Sidereal Time
18:07:31
Azimuth
Unknown
Elevation
Unknown
Doppler factor
Unknown
Orbital elements
Apogee altitude
1,616.521 km
Perigee altitude
1,370.508 km
Semi-major axis
7,871.651 km
Eccentricity
0.01563
Inclination
56.0555°
RAAN
132.4769°
Arg. of periapsis
336.3023°
True anomaly
175.90712°
Mean anomaly
175.7778°
Eccentric anomaly
175.84271°
Mean motion
3.10774 °/min
Orbital period
115.84 mins
BSTAR
0.0013626
Loading maneuver chart data...
Computing Atmospheric mass density...
Loading historical data...
Loading historical data...
Loading historical data...
Loading historical data...
Loading historical data...
Loading historical data...
Loading historical data...

Documentation

Showing up to 5 results
|